Location: Karlsruhe
(49.0069°N, 8.4037°E)
Time: 06:53:29
(UTC+02:00)

ISS - Visible Passes

Search period start: 23 July 2017 00:00
Search period end: 02 August 2017 00:00
Orbit: 400 x 408 km, 51.6° (Epoch: 23 July)

Date Brightness Start Highest point End Pass type
(mag) Time Alt. Az. Time Alt. Az. Time Alt. Az.
23 Jul -4.0 00:15:18 10° WSW 00:18:34 86° SSE 00:21:50 10° ENE visible
23 Jul -3.0 01:52:01 10° W 01:55:12 51° N 01:58:24 10° ENE visible
23 Jul -3.8 03:28:37 10° WNW 03:31:54 82° NNE 03:35:09 10° ESE visible
23 Jul -2.7 05:05:24 10° W 05:08:06 24° SW 05:10:49 10° SSE visible
23 Jul -3.9 23:23:05 10° SW 23:26:17 58° SSE 23:29:30 10° ENE visible
24 Jul -3.1 00:59:38 10° W 01:02:50 54° N 01:06:03 10° ENE visible
24 Jul -3.4 02:36:19 10° WNW 02:39:33 63° NNE 02:42:48 10° E visible
24 Jul -3.4 04:12:53 10° WNW 04:15:57 38° SSW 04:19:01 10° SE visible
24 Jul -3.3 22:31:03 10° SW 22:34:04 36° SSE 22:37:07 10° E visible
25 Jul -3.5 00:07:13 10° W 00:10:27 65° NNW 00:13:42 10° ENE visible
25 Jul -3.1 01:43:58 10° WNW 01:47:11 54° N 01:50:24 10° E visible
25 Jul -3.9 03:20:30 10° WNW 03:23:44 61° SSW 03:26:57 10° SE visible
25 Jul -1.9 04:58:09 10° WSW 04:59:40 13° SW 05:01:12 10° SSW visible
25 Jul -3.9 23:14:51 10° WSW 23:18:06 85° NNW 23:21:22 10° ENE visible
26 Jul -3.0 00:51:35 10° WNW 00:54:47 50° N 00:56:45 20° ENE visible
26 Jul -1.8 02:28:09 10° WNW 02:29:17 20° WNW 02:29:17 20° WNW visible
26 Jul -3.9 22:22:34 10° WSW 22:25:47 67° SSE 22:29:02 10° ENE visible
26 Jul -3.1 23:59:10 10° W 00:02:22 52° N 00:05:20 12° ENE visible
27 Jul -2.6 01:35:49 10° WNW 01:37:56 36° WNW 01:37:56 36° WNW visible
27 Jul -3.3 23:06:43 10° W 23:09:57 60° N 23:13:11 10° ENE visible
28 Jul -3.2 00:43:27 10° WNW 00:46:41 56° N 00:46:57 54° NNE visible
28 Jul -3.7 22:14:18 10° WSW 22:17:32 77° NNW 22:20:49 10° ENE visible
28 Jul -3.0 23:51:03 10° WNW 23:54:14 51° N 23:56:05 22° ENE visible
29 Jul -1.7 01:27:36 10° WNW 01:28:42 19° WNW 01:28:42 19° WNW visible
29 Jul -3.0 22:58:35 10° W 23:01:47 51° N 23:04:59 10° ENE visible
30 Jul -3.3 00:35:13 10° WNW 00:37:53 55° NW 00:37:53 55° NW visible
30 Jul -3.2 22:06:06 10° W 22:09:20 57° N 22:12:33 10° ENE visible
30 Jul -3.4 23:42:50 10° WNW 23:46:03 60° N 23:47:06 37° ENE visible
31 Jul -1.1 01:19:22 10° WNW 01:19:43 12° WNW 01:19:43 12° WNW visible
31 Jul -3.1 22:50:23 10° WNW 22:53:35 52° N 22:56:20 13° E visible
01 Aug -2.6 00:26:55 10° WNW 00:28:58 35° W 00:28:58 35° W visible
01 Aug -3.0 21:57:55 10° W 22:01:06 50° N 22:04:17 10° ENE visible
01 Aug -3.9 23:34:30 10° WNW 23:37:46 83° NNE 23:38:13 63° E visible
